Regional Weather Roundup
Issued by NWS Burlington, VT

Current Version | Previous Version | Graphics & Text | Print | Product List | Glossary Off
Versions: 1 2 3 4 5 6 7 8 9 10 11 12 13 14 15 16 17 18 19 20 21 22 23 24 25 26 27 28 29 30 31 32 33 34 35 36 37 38 39 40 41 42 43 44 45 46 47 48 49 50

914
ASUS41 KBTV 290010
RWRBTV
VERMONT REGIONAL WEATHER ROUNDUP
NATIONAL WEATHER SERVICE BURLINGTON VT
800 PM EDT TUE MAR 28 2017

NOTE: "FAIR" INDICATES FEW OR NO CLOUDS BELOW 12,000 FEET WITH NO
SIGNIFICANT WEATHER AND/OR OBSTRUCTIONS TO VISIBILITY.

* THESE REPORTS ARE NOT UNDER NWS QUALITY CONTROL AND/OR DO NOT
  REPORT WEATHER SUCH AS PRECIPITATION AND FOG.

VTZ001>019-290100-
_____VERMONT_____


CITY           SKY/WX    TMP DP  RH WIND       PRES   REMARKS
BURLINGTON     LGT RAIN  37  35  92 NW10      30.01R FOG     WCI  30
6HR MIN TEMP:  37; 6HR MAX TEMP:  47; 6HR PCP:  0.03;

MONTPELIER     CLOUDY    39  39 100 NW5       29.97R FOG
6HR MIN TEMP:  39; 6HR MAX TEMP:  44; 6HR PCP:  0.03;

MORRISVILLE    CLOUDY    35  31  85 NE6       29.99R WCI  30
6HR MIN TEMP:  35; 6HR MAX TEMP:  51; 6HR PCP:  0.03;

ST. JOHNSBURY*   N/A     39  38  96 MISG      29.93R
6HR MIN TEMP:  39; 6HR MAX TEMP:  44;

LYNDONVILLE*   FOG       39  38  99 CALM      29.95S VSB 1/2
6HR MIN TEMP:  38; 6HR MAX TEMP:  42;

MIDDLEBURY*    DRIZZLE   36  35  98 N7        29.97R WCI  30
6HR MIN TEMP:  36; 6HR MAX TEMP:  54; 6HR PCP:  0.04;

RUTLAND*       LGT RAIN  40  40 100 N7        29.93R
6HR MIN TEMP:  40; 6HR MAX TEMP:  52; 6HR PCP:  0.01;

SPRINGFIELD    FOG       37  36  96 CALM      29.93F VSB 3/4
6HR MIN TEMP:  37; 6HR MAX TEMP:  44; 6HR PCP:  0.10;

HIGHGATE*      CLOUDY    35  35 100 N5        30.03R FOG     WCI  30
6HR MIN TEMP:  35; 6HR MAX TEMP:  35;

NEWPORT*       CLOUDY    35  34  98 NW6       29.98R WCI  30
6HR MIN TEMP:  34; 6HR MAX TEMP:  45;

BENNINGTON     LGT RAIN  45  44  97 CALM      29.90R FOG
6HR MIN TEMP:  45; 6HR MAX TEMP:  54; 6HR PCP:  0.23;

SUTTON*          N/A     36 N/A N/A MISG        N/A

_____LAKE CHAMPLAIN_____


CITY           SKY/WX    TMP DP  RH WIND       PRES   REMARKS
BURTON ISLAND*   N/A     34  34 100 N1          N/A
COLCHESTER RF*   N/A     36  37 100 N9          N/A  WCI  29
DIAMOND ISL*     N/A     37  36  93 N18         N/A  WCI  27

$$

NYZ007-026>031-035-052-083-087-290100-
_____NORTHERN NEW YORK_____


CITY           SKY/WX    TMP DP  RH WIND       PRES   REMARKS
PLATTSBURGH    CLOUDY    37  35  92 NE7       30.03R WCI  32
6HR MIN TEMP:  37; 6HR MAX TEMP:  40; 6HR PCP:  0.01;

SARANAC LAKE   CLOUDY    36  36 100 VRB5      29.96R
6HR MIN TEMP:  36; 6HR MAX TEMP:  46;

MASSENA        CLOUDY    40  36  86 NW6       30.06R
6HR MIN TEMP:  38; 6HR MAX TEMP:  43;

POTSDAM*       CLOUDY    39  39 100 N5        30.05R
WATERTOWN      CLOUDY    41  38  89 N8        30.06R
6HR MIN TEMP:  41; 6HR MAX TEMP:  42;

FT DRUM        CLOUDY    39  36  89 N6        30.03R
6HR MIN TEMP:  39; 6HR MAX TEMP:  40; 6HR PCP: TRACE;

ALBANY         LGT RAIN  45  43  93 CALM      29.93R FOG
6HR MIN TEMP:  45; 6HR MAX TEMP:  48; 6HR PCP:  0.15;

GLENS FALLS    LGT RAIN  43  40  89 NE9       29.94R FOG
6HR MIN TEMP:  43; 6HR MAX TEMP:  50; 6HR PCP:  0.01;


$$
NHZ002-005-011-290100-
_____NEW HAMPSHIRE_____


CITY           SKY/WX    TMP DP  RH WIND       PRES   REMARKS
LEBANON        CLOUDY    38  36  92 NE10      29.94R WCI  31
6HR MIN TEMP:  38; 6HR MAX TEMP:  43; 6HR PCP: TRACE;

KEENE          LGT RAIN  39  37  92 NE5       29.94R
6HR MIN TEMP:  39; 6HR MAX TEMP:  43; 6HR PCP:  0.29;

MT WASHINGTON  LGT RAIN  34  34 100 W26         N/A  VSB 0   WCI  21
6HR MIN TEMP:  33; 6HR MAX TEMP:  35; 6HR PCP:  0.04;

PLYMOUTH       CLOUDY    36  35  98 CALM      29.96S FOG
6HR MIN TEMP:  35; 6HR MAX TEMP:  38;

WHITEFIELD     LGT RAIN  39  36  89 CALM      29.94R FOG
6HR MIN TEMP:  38; 6HR MAX TEMP:  47; 6HR PCP:  0.05;


$$

_____REGIONAL QUEBEC LOCATIONS_____


CITY           SKY/WX    TMP DP  RH WIND       PRES   REMARKS
MONTREAL       DRIZZLE   37  36  93 SW5       30.04R FOG
SHERBROOKE     CLOUDY    36  34  93 NW12      29.97R WCI  27

_____REGIONAL ONTARIO LOCATIONS_____


CITY           SKY/WX    TMP DP  RH WIND       PRES   REMARKS
OTTAWA         MOCLDY    41  32  70 N7        30.06R

______KEY______
VSB  - VISIBILITY IN MILES
WCI  - WIND CHILL INDEX
HX   - HEAT INDEX
$$
NNNN




USA.gov is the U.S. government's official web portal to all federal, state and local government web resources and services.